Regional Weather Roundup
Issued by NWS Newport/Morehead, NC

Current Version | Previous Version | Text Only | Print | Product List | Glossary On
Versions: 1 2 3 4 5 6 7 8 9 10 11 12 13 14 15 16 17 18 19 20 21 22 23 24 25 26 27 28 29 30 31 32 33 34 35 36 37 38 39 40 41 42 43 44 45 46 47 48 49 50
000
ASUS42 KMHX 230213
RWRMHX
WEATHER ROUNDUP FOR EASTERN NORTH CAROLINA
NATIONAL WEATHER SERVICE NEWPORT/MOREHEAD CITY NC
1000 PM EDT SAT APR 22 2017

NOTE: "FAIR" INDICATES FEW OR NO CLOUDS BELOW 12,000 FEET
WITH NO SIGNIFICANT WEATHER AND/OR OBSTRUCTIONS TO VISIBILITY

NCZ015>017-031-032-045>047-102-103-230300-
NORTH COAST

CITY           SKY/WX    TMP DP  RH WIND       PRES   REMARKS
EDENTON        CLOUDY    58  55  89 N8        29.96R
ELIZABETH CITY CLOUDY    57  56  96 NE18      29.95R
KITTY HAWK     RAIN      55  55 100 NE7G20    29.90S
MANTEO         LGT RAIN  57  56  96 NE18G24   29.91S

$$

NCZ045>047-081-094-103-104-230300-
CENTRAL COAST

CITY           SKY/WX    TMP DP  RH WIND       PRES   REMARKS
FRISCO         CLOUDY    72  65  78 W10G20    29.90R

$$

NCZ095-097-098-100-101-230300-
SOUTHERN COAST

CITY           SKY/WX    TMP DP  RH WIND       PRES   REMARKS
BEAUFORT       CLEAR     72  69  90 SW14      29.88R
CEDAR ISLAND   NOT AVBL
JACKSONVILLE   CLEAR     71  66  84 SW8       29.86R
PINEY ISLAND   PTCLDY   N/A N/A N/A SW15      29.86R
WILMINGTON     CLEAR     72  66  81 SW10      29.88R


$$

NCZ011>013-027>030-043-044-078>080-089-090>093-098-230300-
COASTAL PLAIN

CITY           SKY/WX    TMP DP  RH WIND       PRES   REMARKS
AHOSKIE          N/A     58  55  92 N9G16     29.96R
CLINTON        PTCLDY    72  61  68 NE8       29.89R
ELIZABETHTOWN  CLEAR     74  63  69 S6        29.86R
GOLDSBORO      MOCLDY    66  63  90 NE9       29.90R
GREENVILLE     CLOUDY    63  61  94 NE14      29.95R
HAVELOCK       PTCLDY    72  65  78 SW14G23   29.87R
KENANSVILLE    MOCLDY    72  61  68 N12G17    29.89R
KINSTON        NOT AVBL
NEW BERN       MOCLDY    70  64  81 N16G28    29.91R
RICHLANDS      CLEAR     72  64  76 S10       29.87R
ROCKY MOUNT    CLOUDY    61  58  90 NE13      29.94R
WASHINGTON     CLOUDY    60  58  93 NE7       29.93R
WHITEVILLE     CLEAR     73  64  73 S5        29.87R

$$

AMZ130-135-150-152-154-156-158-170-250-252-270-ANZ085-086-088-633-658-670-230300-
MARINE OBSERVATIONS

STATION/POSITION TIME  TEMP    WIND        PRES    WAVE   SWELL
                       AIR SEA DIR/SP/G            HT/PER HT/PER
                 (UTC) (F)     (DEG/KT/KT) (MB)    (FT/S) (FT/S)
CHESAPEAKE LIGHT NOT AVBL
64 E VA BEACH    0150   54 57  350/ 17/ 21 1014.9    6/ 6   3/12
DUCK             0148   55 56   20/ 18/ 21 1012.8
2 E DUCK         0130      59                N/A     6/ 5   2/13
OREGON INLET     0142   57 75   10/ 13/ 19 1012.4
13E OREGON INLT  0148      63                N/A     5/13   5/13
HATTERAS CG      0148   72 71  220/ 10/ 15 1011.4
DIAMOND BUOY     0150   76 75  220/ 21/ 25 1011.2    6/ 6   2/11
CAPE LOOKOUT     0200   71     210/ 11/ 15 1011.5
BEAUFORT LAB     0148   71 68  220/  7/ 11 1010.9
30 SE NEW RVR IN 0108   72     210/ 16/ 21 1011.2
30 SE NEW RVR IN 0143      71                N/A     5/ 6   2/12
27 SE WRIGHTSVLE 0108   72 70  200/ 14/ 19 1010.8
5 SE WRIGHTSVLE  0108   70 69  190/ 12/ 17 1011.2
225 S CAPE HAT   0150   72 75  180/ 14/ 17 1015.8    4/12   3/12
41 SE CHARLESTON 0130   75 73  180/ 16/ 17 1012.1

$$



USA.gov is the U.S. government's official web portal to all federal, state and local government web resources and services.